ACA267 CYYZ-CYWG

Flight info

Callsign ACA267
Flight time N/A
Altitude 36000
Route AVSEP7 MUSIT DCT SSM DCT AGLIN DCT GOVIT NORAK6
Aircraft A321/M-SDE3FGHIRWY/LB1

Departure

Time 2026-05-04 22:50
Airport Toronto Pearson International Airport (CYYZ)

Arrival

Time N/A
Airport Winnipeg / James Armstrong Richardson International Airport (CYWG)
Time Latitude Longitude Altitude Speed Heading
2026-05-04 22:18 43.68055 -79.61666 562 ft 0 kts 136°
2026-05-04 22:37 43.68063 -79.61678 571 ft 4 kts 139°
2026-05-04 22:37 43.68085 -79.61701 564 ft 4 kts 148°
2026-05-04 22:37 43.68108 -79.61718 569 ft 4 kts 164°
2026-05-04 22:38 43.68133 -79.61720 571 ft 4 kts 208°
2026-05-04 22:38 43.68135 -79.61719 561 ft 0 kts 214°
2026-05-04 22:41 43.68116 -79.61744 571 ft 10 kts 225°
2026-05-04 22:42 43.68056 -79.61831 566 ft 13 kts 227°
2026-05-04 22:42 43.68001 -79.61918 567 ft 11 kts 239°
2026-05-04 22:42 43.67980 -79.62004 564 ft 9 kts 243°
2026-05-04 22:42 43.67957 -79.62076 565 ft 7 kts 293°
2026-05-04 22:43 43.68007 -79.62147 562 ft 15 kts 316°
2026-05-04 22:43 43.68093 -79.62259 567 ft 17 kts 317°
2026-05-04 22:43 43.68177 -79.62368 562 ft 16 kts 317°
2026-05-04 22:43 43.68256 -79.62464 568 ft 14 kts 320°
2026-05-04 22:44 43.68327 -79.62550 562 ft 13 kts 316°
2026-05-04 22:44 43.68399 -79.62645 562 ft 17 kts 316°
2026-05-04 22:44 43.68482 -79.62754 567 ft 16 kts 316°
2026-05-04 22:44 43.68561 -79.62856 564 ft 15 kts 317°
2026-05-04 22:45 43.68636 -79.62952 564 ft 15 kts 317°
2026-05-04 22:45 43.68808 -79.63177 564 ft 19 kts 316°
2026-05-04 22:45 43.68903 -79.63301 563 ft 18 kts 317°
2026-05-04 22:46 43.68986 -79.63409 564 ft 16 kts 316°
2026-05-04 22:46 43.69060 -79.63506 569 ft 13 kts 317°
2026-05-04 22:46 43.69112 -79.63529 569 ft 7 kts 17°
2026-05-04 22:46 43.69160 -79.63474 572 ft 10 kts 45°
2026-05-04 22:47 43.69211 -79.63428 571 ft 9 kts 14°
2026-05-04 22:47 43.69273 -79.63422 564 ft 9 kts
2026-05-04 22:47 43.69301 -79.63421 565 ft 0 kts
2026-05-04 22:47 43.69310 -79.63421 565 ft 4 kts
2026-05-04 22:48 43.69367 -79.63439 564 ft 11 kts 329°
2026-05-04 22:48 43.69402 -79.63518 563 ft 10 kts 262°
2026-05-04 22:48 43.69351 -79.63601 563 ft 16 kts 226°
2026-05-04 22:48 43.69126 -79.63925 567 ft 76 kts 226°
2026-05-04 22:49 43.68636 -79.64636 566 ft 126 kts 225°
2026-05-04 22:49 43.67988 -79.65575 881 ft 141 kts 225°
2026-05-04 22:49 43.67298 -79.66608 1133 ft 158 kts 231°
2026-05-04 22:49 43.66601 -79.67946 1122 ft 184 kts 235°
2026-05-04 22:50 43.66117 -79.68915 1417 ft 181 kts 233°
2026-05-04 22:50 43.65411 -79.70391 1710 ft 192 kts 236°
2026-05-04 22:50 43.64647 -79.71973 1814 ft 204 kts 235°
2026-05-04 22:50 43.63843 -79.73672 1972 ft 221 kts 235°
2026-05-04 22:51 43.62980 -79.75507 2524 ft 231 kts 235°
2026-05-04 22:51 43.62091 -79.77382 3240 ft 234 kts 235°
2026-05-04 22:51 43.61187 -79.79255 4037 ft 234 kts 235°
2026-05-04 22:51 43.60267 -79.81126 4733 ft 238 kts 235°
2026-05-04 22:52 43.59323 -79.83000 5195 ft 239 kts 236°
2026-05-04 22:52 43.58619 -79.85070 5913 ft 243 kts 257°
2026-05-04 22:52 43.58670 -79.87415 6582 ft 252 kts 283°
2026-05-04 22:52 43.59580 -79.89525 7256 ft 267 kts 310°
2026-05-04 22:53 43.61200 -79.90901 7913 ft 280 kts 328°
2026-05-04 22:53 43.62985 -79.92017 8604 ft 283 kts 329°
2026-05-04 22:53 43.64796 -79.93123 9302 ft 285 kts 329°
2026-05-04 22:53 43.66620 -79.94230 9940 ft 287 kts 329°
2026-05-04 22:54 43.68456 -79.95357 10284 ft 302 kts 329°
2026-05-04 22:54 43.70438 -79.96590 10423 ft 322 kts 329°
2026-05-04 22:54 43.72534 -79.97901 10614 ft 338 kts 329°